Wind_Speed
107 107 107 106 105 104 103 102 100 98 96 94 92 90 88 87 86 85 84 83 82 80 79 77 76 75 74 73 72 71 71 70 70 70 69 69 68 66 65 63 61 60 58 57 55 54 53 52 51 50 50 48 47 46 45 44 42 41 40 39 38 37 36 35 34 34 33 32 31 31 30 30 29 28 28 28 27 27 27 27 27 27 28 28 28 28
107 106 105 104 102 101 99 98 95 93 91 90 88 87 86 85 84 83 83 81 80 79 77 76 75 74 73 72 71 71 70 70 69 69 68 67 66 64 63 61 59 58 56 55 53 52 51 50 49 49 48 47 45 44 43 42 41 39 38 37 37 36 35 34 33 32 32 31 30 30 29 29 28 28 27 27 27 27 26 26 27 27 27 28 28 28
105 103 102 101 99 97 95 93 91 90 88 87 86 85 84 83 83 82 81 80 79 77 76 74 73 73 72 71 70 70 69 69 69 68 67 65 64 62 61 59 57 56 54 53 52 51 50 49 48 47 46 45 44 43 42 40 39 38 37 36 35 34 34 33 32 32 31 30 30 29 29 28 28 28 27 27 27 26 26 26 26 27 27 28 28 29
101 99 98 96 95 93 91 89 88 87 86 85 84 84 83 82 81 80 79 78 77 76 75 73 72 71 71 70 70 69 69 68 68 66 65 63 62 60 58 57 55 54 52 51 50 49 48 47 46 45 45 44 43 41 40 39 38 37 36 35 34 33 33 32 31 31 30 30 30 29 29 28 28 28 27 27 27 27 27 27 27 27 27 28 28 29
97 95 94 92 91 89 88 87 86 85 84 84 83 82 81 80 79 78 77 76 75 74 73 72 71 71 70 69 69 69 68 67 66 65 63 61 60 58 57 55 54 52 51 50 49 48 47 46 45 44 43 43 41 41 39 38 37 36 35 34 34 33 32 32 31 31 30 30 29 29 29 29 28 28 28 28 28 28 27 27 27 28 28 28 29 29
93 91 90 89 87 86 86 85 84 83 83 82 82 81 79 78 77 76 76 75 74 73 72 71 71 70 69 69 68 68 67 66 64 63 61 60 58 56 55 53 52 51 49 48 47 46 46 45 44 43 42 42 41 40 39 38 37 36 35 34 34 33 32 32 31 31 30 30 30 30 29 29 29 29 29 29 29 29 29 29 29 29 29 29 29 30
89 88 87 86 85 85 84 83 83 82 81 81 80 79 78 77 76 75 74 73 72 72 71 71 70 69 69 68 67 66 65 64 63 61 59 58 56 55 53 52 51 49 48 47 46 45 45 44 43 43 42 41 40 39 38 38 37 36 35 34 34 33 33 32 32 31 31 31 30 30 30 30 30 30 30 30 30 30 30 30 30 30 30 30 31 31
87 86 85 84 83 83 82 82 81 80 80 79 78 77 76 75 74 73 73 72 71 70 70 70 70 69 68 67 66 65 63 62 61 59 58 56 55 53 52 51 49 48 47 46 46 45 44 44 43 42 42 41 40 39 38 38 37 36 35 35 34 34 33 33 32 32 32 32 31 31 31 31 31 32 32 32 32 32 32 32 32 32 32 32 32 33
85 84 84 83 82 81 81 81 80 79 78 77 76 75 74 74 73 72 71 71 70 69 69 69 69 68 67 66 64 63 61 60 59 57 56 55 53 52 51 49 48 47 47 46 45 44 44 43 43 42 41 41 40 39 38 38 37 36 36 35 35 34 34 34 34 33 33 33 33 33 33 33 33 33 33 34 34 34 34 34 34 34 34 34 34 34
83 82 82 81 81 80 79 79 78 77 76 75 74 73 72 71 71 70 70 70 69 69 68 68 68 67 66 64 62 61 60 58 57 56 55 53 52 51 49 48 47 47 46 45 45 44 44 43 43 42 41 41 40 39 38 38 37 37 36 36 36 35 35 35 35 35 35 35 35 35 35 35 35 35 35 35 36 36 36 36 36 36 36 36 36 36
82 81 80 80 79 78 77 76 76 75 74 73 72 72 71 70 69 69 69 69 69 68 68 67 66 65 64 63 61 59 58 57 56 55 53 52 51 49 48 47 47 46 45 45 44 44 44 43 43 42 41 41 40 39 39 38 38 37 37 37 36 36 36 36 36 36 36 36 36 36 36 37 37 37 37 37 38 38 38 38 38 38 38 38 38 38
80 79 79 78 77 76 75 75 74 73 72 71 71 70 70 69 68 68 68 68 67 67 66 66 65 64 62 61 60 58 57 56 54 53 52 51 50 49 48 47 46 46 45 44 44 44 43 43 42 42 41 41 40 40 39 39 38 38 38 38 38 38 38 38 38 38 38 38 38 38 38 38 39 39 39 39 40 40 40 40 40 40 40 40 40 40
78 77 76 76 75 74 73 72 72 71 71 70 69 68 68 68 68 67 67 67 66 65 65 64 63 62 61 59 58 57 56 55 54 53 51 50 49 48 47 47 46 45 45 44 44 44 43 43 43 42 42 41 41 40 40 39 39 39 39 39 39 39 39 39 39 39 40 40 40 40 40 40 41 41 41 41 42 42 42 42 42 43 43 43 43 42
76 75 74 73 73 72 71 70 70 69 69 68 67 67 67 67 67 67 66 66 65 64 63 62 61 60 59 58 56 55 54 54 53 52 51 50 49 48 47 47 46 46 45 45 44 44 43 43 43 42 42 41 41 41 40 40 40 40 40 40 40 40 40 41 41 41 41 42 42 42 42 42 43 43 43 44 44 44 44 45 45 45 45 45 45 44
74 73 72 71 70 70 69 69 68 67 67 66 66 66 66 66 66 65 65 64 64 63 62 61 60 59 57 56 55 54 53 53 52 51 50 49 48 47 47 46 46 46 45 45 44 44 44 43 43 43 42 42 42 41 41 41 41 41 41 41 41 42 42 42 43 43 43 43 44 44 44 44 45 45 45 46 46 46 47 47 47 47 47 47 47 47
71 70 69 69 68 68 68 67 66 65 65 65 65 65 65 65 65 64 63 63 62 61 61 60 59 58 57 55 54 53 52 52 51 51 50 49 48 47 47 47 46 46 45 45 45 44 44 44 43 43 43 43 42 42 42 42 42 42 42 42 43 43 43 44 44 44 45 45 45 46 46 46 47 47 47 48 48 48 49 49 49 49 49 49 49 49
68 67 67 67 67 66 66 65 64 64 64 64 64 64 64 63 63 62 62 61 61 60 59 58 57 57 56 55 53 52 51 51 51 50 50 49 48 47 47 47 47 46 46 45 45 45 44 44 44 44 44 44 43 43 43 43 43 43 43 44 44 44 45 45 46 46 46 47 47 48 48 48 49 49 49 50 50 50 51 51 52 52 52 52 51 51
65 65 65 65 65 65 64 63 63 63 63 63 63 63 62 62 61 61 60 60 59 59 58 57 56 56 55 54 53 52 51 50 50 50 49 49 48 48 47 47 47 47 46 46 45 45 45 45 45 45 44 44 44 44 44 44 44 44 45 45 45 46 46 47 47 48 48 49 49 49 50 50 51 51 51 52 52 52 53 53 54 54 54 54 54 53
64 64 64 64 63 63 62 62 62 62 62 62 61 61 61 60 60 60 59 59 58 58 57 56 56 55 54 54 53 52 51 50 50 50 49 49 49 48 47 47 47 47 47 46 46 45 45 45 45 45 45 45 45 45 45 45 45 46 46 46 47 47 47 48 49 49 50 50 51 51 52 52 52 53 53 54 54 55 55 55 56 56 56 56 55 55
62 63 62 61 61 61 61 61 61 61 60 60 60 59 59 59 59 59 58 58 57 57 56 55 55 55 54 54 53 52 51 50 50 50 50 49 49 48 48 47 48 48 47 47 46 46 46 46 46 46 46 46 46 46 46 46 47 47 47 48 48 48 49 49 50 50 51 52 52 53 53 54 54 55 55 55 56 56 57 57 57 58 58 57 57 57
61 61 60 60 59 59 60 60 60 59 58 58 58 58 58 58 58 58 58 57 57 56 55 55 55 54 54 54 53 52 51 51 50 50 50 50 49 49 48 48 48 48 48 47 47 46 46 46 46 46 46 47 47 47 47 47 48 48 48 49 49 50 50 51 51 52 53 53 54 54 55 55 56 56 57 57 58 58 59 59 59 59 59 59 59 58
59 59 59 59 58 58 58 58 57 57 57 57 57 57 57 57 57 57 57 56 56 55 55 55 55 54 54 53 53 52 52 51 51 51 50 50 50 49 48 48 48 49 48 48 48 47 47 47 47 47 47 47 48 48 48 49 49 49 50 50 51 51 52 52 53 53 54 54 55 56 56 57 57 58 59 59 60 60 60 61 61 61 60 60 60 59
57 57 57 57 57 56 56 56 55 55 55 55 56 56 56 56 56 56 56 55 55 55 55 55 55 54 54 53 53 53 52 51 51 51 50 50 50 49 49 49 49 49 49 49 48 48 48 48 48 48 48 48 49 49 49 50 50 50 51 52 52 53 53 54 54 55 55 56 56 57 58 58 59 59 60 61 61 62 62 62 62 62 62 61 61 61
55 56 56 55 55 54 54 54 54 54 55 55 55 55 55 55 55 55 55 55 54 54 54 54 54 54 54 53 53 53 52 51 51 51 51 51 50 50 49 49 49 50 50 49 49 49 49 49 49 49 49 49 49 50 50 51 51 52 52 53 53 54 55 55 56 56 57 57 58 59 59 60 61 61 62 62 63 63 63 63 63 63 63 63 62 62
54 54 53 53 53 53 52 53 53 53 54 54 55 55 55 54 54 54 54 54 54 54 54 54 54 54 53 53 53 52 52 51 51 51 51 51 51 50 50 49 49 50 50 50 50 49 50 49 49 49 50 50 50 51 51 52 52 53 53 54 55 55 56 57 57 58 58 59 60 60 61 61 62 63 63 63 64 64 64 64 64 64 64 64 63 63
52 52 51 51 51 51 52 52 53 53 53 54 54 54 54 54 54 54 53 53 53 53 54 54 54 53 53 53 52 52 52 51 51 51 51 51 51 51 50 50 50 50 50 50 50 50 50 50 50 50 50 51 51 52 52 53 53 54 54 55 56 57 57 58 59 59 60 60 61 62 62 63 63 64 64 65 65 65 65 65 65 65 65 65 64 64
50 50 50 50 50 51 51 52 52 53 53 53 53 53 53 53 53 53 53 53 53 53 53 53 53 53 53 52 52 52 52 51 51 51 51 51 51 51 50 50 50 50 50 51 50 50 51 51 51 51 51 52 52 53 53 54 54 55 55 56 57 58 58 59 60 60 61 62 62 63 63 64 65 65 65 65 66 66 66 66 66 66 66 66 65 65
48 48 49 49 50 50 51 52 52 52 53 53 53 53 52 52 52 52 53 52 52 52 52 53 53 53 53 52 52 52 51 51 51 51 51 51 51 51 51 50 50 50 51 51 51 51 51 51 51 52 52 53 53 54 54 55 55 56 56 57 58 59 59 60 61 61 62 63 63 64 64 65 65 66 66 66 67 67 67 67 67 67 67 67 66 66
47 47 48 49 49 50 51 52 52 52 53 53 53 52 52 52 52 52 52 52 52 52 52 52 52 52 52 53 52 52 52 51 51 51 51 51 51 51 51 51 51 51 51 51 51 51 51 51 52 52 53 53 54 54 55 55 56 57 57 58 59 59 60 61 62 62 63 63 64 65 65 66 66 67 67 67 68 68 68 68 68 68 67 67 67 66
47 47 48 49 50 50 51 52 52 52 53 53 53 52 52 52 52 52 51 51 51 51 52 52 52 52 52 52 53 52 52 51 51 51 51 51 52 52 51 51 51 51 51 52 52 52 52 52 52 52 53 54 55 55 56 56 57 58 58 59 60 61 61 62 62 63 63 64 65 65 66 66 67 67 68 68 68 69 69 69 68 68 68 68 67 67
46 47 48 49 50 50 51 52 52 53 53 53 53 53 52 52 51 51 51 51 51 51 51 51 51 52 52 52 52 52 52 52 51 51 51 51 52 52 51 52 52 51 51 52 52 53 53 53 52 52 53 54 55 56 56 57 58 59 59 60 61 61 62 62 63 63 64 65 65 66 66 67 67 68 68 69 69 69 69 69 69 69 68 68 68 67
47 47 48 49 50 51 51 52 53 53 53 53 53 53 52 52 51 51 50 50 50 50 51 51 51 51 51 51 52 52 52 52 51 51 51 51 52 52 51 52 52 52 52 52 52 53 54 54 54 53 54 54 55 56 57 58 58 59 60 60 61 62 62 63 64 64 65 65 66 67 67 68 68 69 69 69 69 69 69 69 69 69 69 68 68 68
47 48 49 49 50 51 52 52 53 53 53 53 53 53 52 52 51 50 50 50 50 50 50 51 51 51 51 51 51 51 51 51 51 51 51 51 52 52 52 52 52 52 52 53 53 53 54 55 55 55 55 55 56 57 57 58 59 59 60 61 62 62 63 64 64 65 66 66 67 68 68 69 69 69 70 70 70 70 70 69 69 69 69 69 69 68
47 48 49 50 51 52 52 53 53 54 53 53 53 53 52 52 51 50 50 50 50 50 50 50 51 51 51 51 51 51 51 51 51 51 51 51 52 52 52 52 52 53 53 53 54 54 55 55 55 56 56 56 56 57 58 58 59 60 61 61 62 63 64 64 65 66 67 67 68 69 69 69 70 70 70 70 70 70 70 70 70 69 69 69 69 69
47 48 50 51 52 52 53 53 54 54 54 53 53 52 52 52 51 51 50 50 50 50 50 50 50 50 51 51 51 52 52 51 51 51 51 51 52 52 52 52 53 53 54 54 54 55 55 56 56 56 57 57 57 57 58 59 59 60 61 62 63 63 64 65 66 67 67 68 69 69 70 70 70 70 70 70 71 71 70 70 70 70 69 69 68 68
48 49 50 51 52 53 54 54 54 54 54 53 53 52 52 52 51 51 51 50 50 50 50 50 50 50 50 51 51 52 52 52 51 51 51 51 52 52 52 53 53 53 54 54 55 55 56 56 56 57 57 57 58 58 59 59 60 61 62 63 63 64 65 66 66 67 68 68 69 69 70 70 70 71 71 71 71 71 71 71 70 70 69 68 68 67
49 50 51 52 53 53 54 54 54 54 54 54 53 53 52 52 52 51 51 51 50 50 50 50 50 50 50 50 51 51 52 52 52 52 52 52 52 52 53 53 53 53 54 54 55 56 56 57 57 57 58 58 58 59 60 61 61 62 63 63 64 65 66 66 67 67 68 69 69 70 70 70 71 71 71 71 71 71 71 71 70 69 69 68 67 67
50 51 52 53 53 54 54 55 55 55 54 54 53 53 53 52 52 51 51 51 51 51 51 50 50 50 50 51 51 51 52 52 52 52 52 52 52 53 53 53 54 54 54 55 55 56 57 57 58 58 59 59 60 60 61 62 62 63 64 64 65 65 66 67 67 68 68 69 69 70 70 71 71 71 72 72 72 72 71 71 70 69 68 67 66 65
51 52 53 53 54 54 55 55 55 55 55 54 54 53 53 52 52 51 51 51 51 51 51 51 51 51 51 51 52 52 52 52 53 53 53 53 53 53 54 54 54 54 55 55 56 56 57 58 59 59 60 61 61 62 62 63 64 64 65 65 65 66 66 67 67 68 68 69 70 70 71 71 71 72 72 72 72 72 71 70 69 68 67 66 65 64
52 53 54 54 54 55 55 56 56 55 55 55 54 54 53 52 52 51 51 51 51 51 51 51 51 51 52 52 52 52 53 53 53 53 54 54 54 54 54 55 55 55 56 56 57 57 58 59 60 60 61 62 62 63 64 64 65 65 66 66 66 66 67 67 67 68 69 69 70 70 71 71 71 72 72 72 71 71 71 70 68 67 66 65 64 62
53 54 54 55 55 55 56 56 56 56 56 55 55 54 53 53 52 52 52 52 52 52 52 52 52 52 52 52 53 53 53 53 54 54 54 54 55 55 55 55 56 56 57 57 58 58 59 60 61 61 62 63 64 64 65 65 66 66 66 67 67 67 67 67 68 68 69 69 70 70 71 71 71 71 71 71 71 70 69 69 68 66 65 63 62 60
54 54 55 55 56 56 56 57 57 56 56 56 55 54 54 53 53 52 52 52 53 53 52 53 53 53 53 53 53 54 54 54 54 54 55 55 55 56 56 56 57 57 58 58 59 60 60 61 62 62 63 64 64 65 66 66 67 67 67 67 67 68 68 68 68 68 69 70 70 70 71 71 71 71 71 71 70 69 68 67 66 65 63 62 60 58
55 55 56 56 56 57 57 57 57 57 57 56 55 55 54 54 53 53 53 53 53 53 53 53 54 54 54 54 54 54 55 55 55 55 55 56 56 56 57 57 58 58 59 59 60 61 61 62 63 63 64 64 65 66 66 67 67 67 67 67 68 68 68 69 69 69 69 70 70 70 70 71 71 71 70 70 69 68 67 66 64 63 61 60 58 56
55 56 56 56 57 57 57 57 57 57 57 56 56 55 55 54 54 53 53 54 54 54 54 54 54 54 55 55 55 55 56 56 56 56 56 56 57 57 58 58 59 59 60 60 61 62 63 63 64 64 65 65 66 66 67 67 67 68 68 67 68 68 68 69 69 69 70 70 70 70 70 70 70 70 70 69 68 67 66 64 62 61 59 57 56 54
56 56 57 57 57 57 58 58 58 58 57 57 56 56 55 55 54 54 54 54 55 55 55 55 55 55 55 56 56 56 56 57 57 57 57 57 58 58 59 59 60 60 61 62 62 63 64 64 65 65 66 66 66 67 67 68 68 68 68 68 68 68 68 69 69 69 69 70 70 70 69 70 70 70 70 69 67 66 64 62 61 59 57 55 54 53
56 57 57 57 57 58 58 58 58 58 58 57 57 56 56 55 55 55 55 55 55 55 56 56 56 56 56 56 57 57 57 58 58 58 58 59 59 59 60 60 61 61 62 63 63 64 64 65 65 66 66 67 67 67 68 68 68 68 68 68 68 68 68 68 69 69 69 69 69 69 69 69 69 69 69 68 67 65 62 60 58 57 55 53 52 52
57 57 57 57 57 58 58 59 59 59 58 58 57 57 56 56 55 55 55 55 55 56 56 57 57 57 57 57 57 58 58 59 59 59 59 60 60 60 61 61 62 62 63 64 64 65 65 66 66 66 67 67 68 68 68 68 68 68 68 68 68 68 68 68 68 68 69 69 69 69 69 69 69 69 68 67 66 64 61 59 56 54 53 52 51 51
57 57 57 57 58 58 59 59 59 59 59 58 58 57 56 56 55 55 55 55 56 56 57 57 58 58 58 58 58 59 59 60 60 60 61 61 61 62 62 63 63 64 64 65 65 66 66 66 66 67 67 67 68 69 69 69 68 68 68 68 68 68 68 68 68 68 68 68 68 68 68 68 68 68 68 67 65 63 60 57 55 52 51 50 50 50
57 57 58 58 58 59 60 60 60 59 59 59 58 57 57 56 56 55 56 56 56 56 57 58 58 59 59 59 60 60 60 61 61 61 62 62 62 63 63 64 64 65 65 66 66 66 67 67 67 67 67 67 68 69 69 69 69 68 68 68 68 68 68 68 68 68 68 68 68 68 68 67 67 67 66 65 64 61 59 56 53 51 49 49 49 49
57 58 58 59 59 60 60 60 60 60 59 59 58 58 57 56 56 55 55 56 56 57 57 58 59 59 60 60 61 61 61 62 62 62 63 63 63 64 64 65 65 65 66 66 67 67 68 68 68 68 67 67 68 68 69 69 69 68 68 68 68 68 68 68 68 68 68 68 67 67 67 67 66 65 64 63 62 60 57 55 52 50 48 48 48 47
58 58 59 59 60 61 61 61 61 60 60 59 58 58 57 57 56 56 56 56 56 57 58 58 59 60 61 61 62 62 62 63 63 63 64 64 64 64 65 65 66 66 66 67 67 68 68 69 69 69 68 68 68 68 68 69 69 69 68 68 67 67 67 68 68 67 67 67 67 67 67 66 65 64 62 61 60 58 56 54 52 49 48 47 46 46
Wind_Direction
292 293 293 294 294 295 295 296 296 297 297 298 298 299 299 300 300 301 301 301 302 302 303 303 303 304 304 305 305 306 306 307 307 307 308 308 308 308 308 307 307 307 307 307 307 306 306 306 306 306 305 305 305 305 305 305 305 304 304 304 304 304 303 303 303 303 303 302 302 301 301 300 300 299 299 298 297 296 295 294 293 292 291 290 290 289
292 293 293 294 294 294 295 296 296 297 297 298 298 299 299 300 300 300 301 301 302 302 303 303 303 304 304 305 305 306 306 307 307 307 308 308 307 307 307 307 307 307 307 306 306 306 306 306 305 305 305 305 305 305 305 305 305 305 304 304 304 304 304 303 303 303 302 302 302 301 301 300 300 299 299 298 297 296 295 294 292 291 290 289 289 288
292 292 293 293 294 294 295 296 296 297 297 298 298 299 299 300 300 300 301 301 302 302 302 303 303 304 304 305 305 306 306 307 307 307 307 307 307 307 307 307 306 306 306 306 306 305 305 305 305 305 305 305 305 305 305 305 305 305 305 304 304 304 304 304 303 303 303 302 302 302 301 301 300 299 299 298 297 296 294 293 292 291 289 289 288 287
291 292 293 293 294 294 295 296 296 297 297 297 298 298 299 299 300 300 301 301 302 302 302 303 303 304 304 305 306 306 307 307 307 307 307 307 306 306 306 306 306 306 305 305 305 305 305 305 305 305 305 305 305 305 305 305 305 305 305 304 304 304 304 303 303 303 302 302 302 302 301 301 300 299 299 298 296 295 294 293 291 290 289 288 287 286
291 292 293 293 294 295 295 296 296 297 297 297 298 298 299 299 300 300 300 301 301 302 302 303 303 304 305 305 306 306 306 307 307 306 306 306 306 306 306 305 305 305 305 305 305 305 305 305 305 305 305 305 305 305 305 305 305 305 305 304 304 304 304 303 303 302 302 302 302 301 301 300 300 299 298 298 297 295 294 293 291 290 288 287 286 285
292 292 293 294 294 295 295 296 296 296 297 297 298 298 299 299 299 300 300 301 301 302 302 303 304 304 305 305 306 306 306 306 306 306 306 305 305 305 305 305 305 304 304 304 304 304 305 305 305 305 305 305 305 305 305 305 305 305 304 304 304 303 303 303 302 302 302 301 301 301 301 300 300 299 298 297 296 295 294 293 291 290 288 287 286 284
292 293 293 294 294 295 295 296 296 296 297 297 298 298 298 299 299 300 300 301 301 302 302 303 304 304 305 305 306 306 306 306 306 305 305 305 305 305 305 304 304 304 304 304 304 304 304 305 305 305 305 304 305 304 304 304 304 304 304 304 303 303 303 302 302 302 301 301 301 301 300 300 300 299 298 298 297 296 295 293 292 291 289 288 286 285
292 293 293 294 294 295 295 295 296 296 297 297 297 298 298 298 299 299 300 301 301 302 303 303 304 304 305 305 305 305 305 305 305 305 305 304 304 304 304 304 303 303 303 303 304 304 304 304 304 304 304 304 304 304 304 304 303 303 303 303 303 302 302 302 302 301 301 301 301 301 300 300 300 299 299 298 298 297 296 295 293 292 291 289 287 286
292 293 293 294 294 295 295 295 296 296 296 297 297 297 298 298 299 299 300 301 301 302 303 303 304 304 304 305 305 305 305 305 304 304 304 304 304 303 303 303 302 302 303 303 303 303 304 304 303 303 303 303 303 303 303 303 303 303 303 302 302 302 302 301 301 301 301 301 301 301 301 301 300 300 299 299 298 298 297 296 295 294 292 291 289 288
292 293 293 294 294 294 295 295 295 296 296 296 297 297 298 298 299 299 300 301 301 302 302 303 303 304 304 304 305 304 304 304 304 303 303 303 303 302 302 302 302 302 302 302 302 303 303 302 302 302 302 302 302 302 302 302 302 302 302 301 301 301 301 301 301 301 301 301 301 300 300 300 300 300 299 299 299 298 297 297 296 295 294 293 291 289
292 293 293 293 294 294 294 295 295 295 296 296 297 297 298 298 299 299 300 301 302 302 302 303 303 304 304 304 304 304 304 303 303 303 302 302 302 301 301 301 301 301 301 301 301 301 301 301 301 301 301 301 301 301 301 301 301 301 301 300 300 300 300 300 300 300 300 300 300 300 300 300 300 299 299 299 298 298 298 297 296 296 295 294 292 291
292 292 293 293 293 294 294 294 295 295 296 296 297 297 298 298 298 299 300 301 302 302 302 303 303 303 304 304 304 304 303 303 302 302 302 301 301 301 300 300 300 300 300 300 300 300 300 300 300 300 300 300 299 300 299 300 299 299 299 299 299 299 299 299 299 299 299 299 299 299 299 299 299 299 299 299 298 298 298 297 297 296 295 294 293 292
292 292 292 293 293 293 293 294 294 295 295 296 296 297 297 298 299 299 300 301 301 302 302 302 303 303 303 303 303 303 303 302 302 301 301 301 300 300 300 299 299 299 299 299 299 299 299 299 299 298 298 298 298 298 298 298 298 298 298 298 298 298 298 298 298 298 298 298 298 298 299 299 299 298 298 298 298 298 298 297 297 296 295 295 294 292
292 292 292 292 292 292 293 293 294 294 295 296 296 296 297 298 299 300 300 301 301 301 302 302 302 302 302 302 302 302 302 302 301 301 300 300 300 299 299 299 298 298 298 298 298 298 298 298 298 297 297 297 297 297 297 297 297 297 297 297 297 297 297 297 297 297 298 298 298 298 298 298 298 298 298 298 298 298 298 297 297 296 296 295 294 293
291 291 291 291 291 292 292 293 294 294 295 295 296 296 297 298 299 300 300 301 301 301 301 302 302 302 302 302 302 302 302 301 301 300 300 300 299 299 299 298 298 298 298 297 297 297 297 297 297 296 296 296 296 296 296 296 296 296 296 296 296 296 296 296 297 297 297 297 297 297 297 297 298 298 298 298 298 298 297 297 297 297 296 296 295 294
290 290 290 290 291 291 292 293 294 294 294 295 296 296 298 298 299 299 300 300 301 301 301 301 301 301 301 301 301 301 301 301 300 300 299 299 299 298 298 297 297 297 297 297 297 297 297 296 296 296 295 295 295 295 295 295 295 295 295 295 295 295 296 296 296 296 296 297 297 297 297 297 297 298 298 298 298 298 298 298 297 297 297 296 295 294
289 289 289 290 290 291 292 293 293 294 294 295 296 297 298 298 299 299 300 300 300 301 301 301 301 301 301 301 301 301 301 300 300 299 299 298 298 298 297 297 296 296 296 296 296 296 296 296 295 295 295 295 294 294 294 294 294 294 294 295 295 295 295 295 296 296 296 297 297 297 297 297 298 298 298 298 298 298 298 298 298 297 297 297 296 295
288 288 289 290 291 292 292 292 293 293 294 295 296 297 298 298 298 299 299 300 300 300 301 301 301 301 301 301 301 301 301 300 300 299 299 298 298 297 297 296 295 295 295 295 295 295 295 295 295 295 294 294 294 294 294 294 294 294 294 295 295 295 295 296 296 296 296 297 297 297 298 298 298 298 298 298 298 298 298 298 298 298 297 297 296 296
288 288 289 290 291 292 292 292 293 293 294 295 296 297 297 298 298 299 299 300 300 300 301 301 301 301 301 301 301 301 301 300 299 299 298 298 297 297 296 296 295 295 294 294 294 295 294 294 294 294 294 294 294 294 294 294 294 294 295 295 295 295 296 296 296 296 297 297 297 297 298 298 298 298 298 298 298 298 298 298 298 298 297 297 297 296
287 288 289 290 291 291 291 292 293 294 295 295 296 297 297 298 298 299 299 300 300 300 301 301 301 301 301 301 301 301 301 300 299 299 298 298 297 297 296 295 295 294 294 294 294 294 294 294 294 294 294 294 294 294 294 294 295 295 295 295 295 296 296 296 296 297 297 297 297 298 298 298 298 298 298 298 298 298 298 298 298 298 298 297 297 296
287 288 289 289 290 290 291 292 293 294 295 295 296 297 297 298 299 299 299 300 300 300 301 301 301 301 301 301 300 300 300 300 299 299 298 297 297 296 296 295 294 294 294 293 293 294 293 293 294 294 294 294 294 294 295 295 295 295 296 296 296 296 296 297 297 297 297 297 298 298 298 298 298 298 298 298 298 298 298 298 298 298 298 297 297 297
287 288 288 289 289 290 291 292 293 294 295 295 296 297 298 298 299 299 300 300 300 301 301 301 301 301 301 300 300 300 300 300 299 299 298 297 297 296 296 295 294 294 293 293 293 293 293 293 293 294 294 294 294 295 295 295 296 296 296 296 297 297 297 297 297 297 298 298 298 298 298 298 298 298 298 298 298 298 298 298 298 298 298 298 297 297
287 287 288 289 290 290 291 292 293 294 295 296 296 297 298 298 299 299 300 300 300 300 300 300 300 300 300 300 300 300 300 299 299 298 298 297 297 296 296 295 294 294 293 293 293 293 293 293 293 294 294 294 295 295 296 296 296 297 297 297 297 297 298 298 298 298 298 298 298 298 298 299 299 299 299 299 299 299 299 299 298 298 298 298 297 297
286 287 288 289 290 291 291 292 293 294 295 296 296 297 298 298 299 299 299 300 300 300 300 300 300 300 299 299 299 299 299 299 299 298 298 297 297 296 296 295 295 294 293 293 293 293 293 293 294 294 294 295 295 296 296 297 297 297 298 298 298 298 298 298 298 298 299 299 299 299 299 299 299 299 299 299 299 299 299 299 299 299 298 298 298 297
286 287 288 289 290 291 291 292 293 294 295 296 297 297 298 298 298 299 299 299 299 299 299 299 299 299 299 299 299 299 299 299 299 298 298 298 297 297 296 296 295 294 294 294 293 293 293 294 294 294 295 295 296 296 297 297 297 298 298 298 298 298 298 299 299 299 299 299 299 299 299 299 299 299 299 299 299 299 299 299 299 299 299 298 298 298
286 287 288 289 290 290 291 292 293 294 295 296 297 297 298 298 298 298 298 298 298 299 299 299 298 299 299 299 299 299 299 299 299 299 298 298 297 297 297 296 296 295 295 294 294 294 294 294 295 295 296 296 296 297 297 298 298 298 298 298 298 299 299 299 299 299 299 299 299 299 299 299 299 299 299 299 299 299 299 299 299 299 299 299 298 298
286 287 288 289 290 291 292 293 293 294 295 296 296 297 297 297 297 297 297 297 298 298 298 298 298 298 299 299 299 299 299 299 299 299 299 299 298 298 298 297 297 296 296 295 295 295 295 296 296 296 296 297 297 297 298 298 298 298 299 299 299 299 299 299 299 299 299 300 300 300 300 300 300 300 300 300 300 300 300 300 300 299 299 299 299 298
286 287 288 289 290 291 292 293 294 294 295 296 296 296 296 296 296 296 296 297 297 298 298 298 298 299 299 299 299 299 300 300 300 300 300 299 299 299 299 298 298 297 297 297 297 296 296 297 297 297 297 298 298 298 298 298 298 299 299 299 299 299 299 299 299 299 299 300 300 300 300 300 300 300 300 300 300 300 300 300 300 300 300 299 299 298
287 288 288 289 290 291 292 293 294 294 295 295 295 296 296 296 295 295 296 296 297 297 298 298 299 299 299 300 300 300 300 300 301 301 301 300 300 300 300 299 299 299 298 298 298 298 297 298 298 298 298 298 298 298 299 299 299 299 299 299 299 299 299 299 299 300 300 300 300 300 300 300 300 300 300 300 300 300 300 300 300 300 300 299 299 299
287 288 289 290 291 292 292 293 294 294 295 295 295 295 295 295 295 295 295 296 297 297 298 298 299 299 300 300 300 301 301 301 302 302 302 301 301 301 301 300 300 300 299 299 299 299 298 298 298 299 299 299 299 299 299 299 299 299 299 300 299 300 300 300 300 300 300 300 300 300 300 300 300 300 300 300 301 301 301 301 300 300 300 300 299 299
287 288 289 290 291 292 293 293 294 294 295 295 295 295 295 295 294 295 295 296 296 297 298 299 299 300 300 301 301 301 301 302 302 302 302 301 301 301 301 301 300 300 300 300 300 299 299 299 299 299 299 299 299 299 299 300 300 300 300 300 300 300 300 300 300 300 300 300 300 300 300 300 300 301 301 301 301 301 301 301 301 301 300 300 300 299
287 288 289 290 291 292 293 293 294 294 294 294 294 294 294 294 295 295 295 296 297 298 298 299 300 300 301 301 301 302 302 302 302 302 302 302 301 301 301 301 300 300 300 300 300 300 299 300 299 299 299 299 299 300 300 300 300 300 300 300 300 300 300 300 300 301 301 301 301 301 301 301 301 301 301 301 301 301 301 301 301 301 300 300 300 299
287 288 289 290 291 292 292 293 293 294 294 294 294 294 295 295 295 295 296 296 297 298 299 300 300 301 301 301 301 302 302 302 302 302 302 302 301 301 301 301 301 300 300 300 300 300 300 300 300 300 300 300 300 300 300 300 300 300 300 300 300 301 301 301 301 301 301 301 301 301 301 301 301 301 301 301 301 301 301 301 301 301 301 300 300 299
287 289 289 290 291 292 292 293 293 294 294 294 295 295 295 295 296 296 296 297 297 298 299 300 301 302 302 302 302 302 302 302 302 303 302 302 302 302 301 301 301 301 301 301 300 300 300 300 300 300 300 300 300 300 300 300 301 301 301 301 301 301 301 302 302 302 302 302 302 302 302 302 302 302 302 302 302 302 301 301 301 301 301 300 300 299
288 289 290 291 291 292 293 293 293 294 294 295 295 296 296 296 296 296 297 297 297 298 299 300 301 302 302 303 303 303 303 303 303 303 303 302 302 302 302 302 301 301 301 301 301 301 301 300 300 301 301 301 301 300 301 301 301 301 301 301 301 302 302 302 302 302 302 302 302 302 302 302 302 302 302 302 302 302 302 301 301 301 301 300 300 299
288 289 290 291 292 292 293 293 294 294 295 296 296 296 297 297 297 297 297 297 297 298 299 300 301 301 302 303 303 304 304 303 303 303 303 303 303 302 302 302 302 302 301 301 301 301 301 301 301 301 301 301 301 301 301 301 301 301 301 302 302 302 302 302 302 302 302 302 302 302 302 302 302 302 302 302 302 302 302 301 301 301 301 300 300 299
289 289 290 291 292 292 293 294 294 295 296 296 297 297 297 297 297 296 297 297 298 298 299 300 301 302 302 303 303 304 304 304 303 303 303 303 303 303 302 302 302 302 302 302 301 301 301 301 301 301 301 301 301 302 302 302 302 302 302 302 302 303 303 303 303 303 303 303 303 303 303 303 303 303 303 302 302 302 302 302 302 302 301 301 300 299
289 290 291 292 292 293 294 294 295 296 296 297 297 297 297 297 297 297 297 297 298 298 299 300 301 302 303 303 303 304 304 304 304 304 303 303 303 303 303 302 302 302 302 302 302 302 302 302 302 302 302 302 302 302 302 302 302 302 302 303 303 303 303 303 303 303 303 303 303 303 303 303 303 303 303 303 302 302 302 302 302 302 302 301 300 299
290 291 291 292 293 293 294 295 295 296 296 297 297 297 297 297 296 296 297 297 298 299 300 301 302 302 303 304 304 304 304 304 304 304 304 303 303 303 303 302 302 302 302 302 302 302 302 302 302 302 302 302 303 303 303 303 303 303 303 303 303 303 304 304 304 304 303 303 303 303 303 303 303 303 303 303 303 303 302 302 303 302 302 302 301 300
290 291 292 293 293 294 294 295 296 296 297 297 297 297 297 297 297 297 297 297 298 299 300 301 302 302 303 304 304 304 304 304 304 304 304 303 303 303 303 303 302 302 302 302 302 302 302 302 303 303 303 303 303 303 303 303 304 304 304 304 304 304 304 304 304 304 304 304 304 303 303 303 303 303 303 303 303 303 303 303 303 303 302 302 301 300
291 292 292 293 294 294 295 295 296 296 297 297 297 297 297 297 297 297 298 298 299 299 300 301 302 302 303 303 304 304 304 304 304 304 304 303 303 303 303 303 303 302 303 302 302 302 303 303 303 303 303 304 304 304 304 304 304 304 304 305 305 305 304 304 304 304 304 304 304 304 304 304 304 303 303 303 303 303 304 304 304 303 303 302 301 301
291 292 293 294 294 295 295 296 296 296 297 297 297 298 298 298 298 298 298 299 299 299 300 301 302 302 303 303 304 304 304 304 304 304 303 303 303 303 303 303 303 303 303 303 303 303 303 303 303 303 304 304 304 304 304 304 304 305 305 305 305 305 305 304 304 304 304 304 304 304 304 304 304 304 304 303 304 304 304 304 304 304 303 302 301 301
292 292 293 294 295 295 295 296 296 297 297 297 298 298 298 298 298 298 298 299 299 299 300 300 301 302 303 303 304 304 304 304 304 303 303 303 303 303 303 303 303 303 303 303 303 303 303 303 303 304 304 304 304 304 304 305 305 305 305 305 305 305 305 305 305 305 305 304 304 304 304 304 304 304 304 304 304 304 304 304 304 303 303 302 302 301
292 293 294 294 295 295 295 296 296 297 297 298 298 298 298 298 298 298 298 298 299 299 299 300 301 301 302 303 303 304 304 304 304 303 303 303 303 303 303 303 303 302 303 303 303 303 303 303 303 304 304 304 304 305 305 305 305 305 305 305 305 305 305 305 305 305 305 305 305 305 305 305 304 304 304 304 304 304 305 304 304 303 303 302 301 301
293 293 294 294 295 295 295 296 296 297 297 298 298 298 298 298 298 298 298 298 298 298 299 300 300 301 302 302 303 304 304 304 304 303 303 303 303 303 303 302 303 303 303 303 303 303 303 304 304 304 304 304 304 305 305 305 305 305 305 305 306 305 305 305 305 305 305 305 305 305 305 305 305 305 304 304 305 305 305 304 304 303 303 302 301 301
293 293 294 294 295 295 295 296 296 297 297 298 298 298 298 298 298 298 298 298 298 298 299 299 300 301 302 302 303 304 304 304 304 304 303 303 303 303 303 302 303 303 303 303 303 303 303 304 304 304 304 305 305 305 305 305 305 305 306 306 306 306 306 306 306 306 306 306 306 306 306 305 305 305 305 305 305 305 305 304 304 303 303 302 302 301
293 293 294 294 295 295 295 296 296 297 297 298 298 298 298 298 298 298 297 297 298 298 298 299 300 301 302 302 303 304 304 304 304 304 303 303 303 303 303 303 303 303 303 303 303 303 303 303 304 304 304 305 305 305 305 305 305 306 306 306 306 306 306 306 306 306 306 306 306 306 306 306 305 305 305 305 305 305 304 304 303 303 303 302 302 301
293 294 294 295 295 295 295 296 296 297 297 297 298 298 298 298 297 297 297 297 297 298 299 299 300 301 301 302 303 303 304 304 304 304 304 303 303 303 303 303 303 303 303 303 303 303 303 303 304 304 304 305 305 305 305 305 306 306 306 306 306 306 306 306 306 306 306 306 306 306 306 306 306 306 306 306 305 305 304 304 303 303 303 303 302 302
294 294 294 295 295 295 295 296 296 297 297 297 298 298 298 297 297 297 297 297 298 298 299 299 300 301 302 302 303 303 303 304 304 304 303 303 303 303 303 303 303 303 303 303 303 303 303 303 304 304 304 305 305 305 305 305 306 306 306 306 306 307 307 306 306 306 306 306 306 306 306 306 306 306 306 306 305 305 304 303 303 303 303 303 303 302
294 294 295 295 295 295 295 296 296 297 297 297 298 298 297 297 297 297 297 297 298 298 299 300 300 301 302 302 303 303 303 303 303 303 303 303 303 303 303 303 303 303 303 303 303 303 304 304 304 304 304 304 305 305 305 306 306 306 306 306 307 307 307 307 307 307 306 306 306 306 306 306 305 305 305 305 305 304 303 303 303 303 303 303 303 302
294 294 295 295 295 295 295 295 296 297 297 297 297 297 297 297 297 297 297 297 298 298 299 300 300 301 302 302 303 303 303 303 303 303 303 303 303 303 303 303 303 303 304 304 304 304 304 304 304 304 304 304 305 305 305 306 306 306 306 307 307 307 307 307 307 307 306 306 306 306 306 306 306 305 305 305 304 304 303 303 303 303 303 303 303 302
Height
10570 10568 10567 10565 10564 10561 10559 10557 10555 10553 10550 10548 10546 10544 10542 10539 10537 10535 10533 10531 10529 10527 10525 10523 10521 10519 10516 10514 10512 10510 10508 10506 10504 10502 10500 10498 10495 10493 10491 10489 10487 10485 10483 10481 10479 10477 10475 10474 10472 10470 10469 10467 10465 10464 10463 10462 10460 10459 10458 10457 10455 10455 10454 10452 10452 10450 10450 10449 10448 10447 10447 10446 10445 10445 10445 10444 10444 10444 10443 10443 10442 10442 10441 10441 10440 10440
10564 10562 10560 10559 10557 10555 10552 10550 10549 10547 10545 10542 10540 10539 10536 10534 10532 10529 10527 10525 10524 10522 10520 10518 10516 10514 10512 10509 10507 10505 10504 10502 10500 10497 10495 10493 10491 10489 10487 10485 10483 10481 10479 10477 10475 10474 10472 10470 10469 10467 10465 10464 10462 10461 10460 10459 10457 10456 10455 10454 10453 10452 10451 10450 10449 10448 10447 10447 10445 10445 10444 10444 10444 10443 10442 10442 10442 10442 10441 10440 10440 10440 10439 10439 10439 10438
10557 10555 10554 10552 10551 10549 10547 10545 10543 10542 10540 10537 10535 10533 10531 10529 10526 10524 10522 10520 10518 10517 10515 10514 10511 10509 10507 10505 10503 10501 10499 10497 10495 10493 10491 10489 10487 10485 10483 10481 10479 10477 10475 10474 10472 10470 10469 10467 10465 10464 10462 10460 10459 10458 10457 10455 10454 10453 10452 10451 10450 10449 10448 10447 10446 10445 10445 10444 10443 10443 10442 10442 10441 10440 10440 10440 10440 10439 10439 10439 10438 10438 10437 10437 10437 10436
10551 10549 10547 10546 10545 10543 10542 10540 10538 10535 10534 10532 10529 10527 10525 10524 10521 10519 10517 10515 10513 10511 10510 10509 10507 10505 10502 10500 10499 10497 10494 10492 10490 10489 10487 10484 10482 10480 10479 10477 10475 10474 10472 10470 10469 10467 10465 10464 10462 10460 10459 10457 10456 10455 10454 10452 10451 10450 10449 10449 10447 10446 10445 10445 10444 10443 10442 10442 10440 10440 10440 10439 10439 10438 10438 10437 10437 10437 10437 10436 10436 10435 10435 10435 10434 10434
10545 10544 10542 10540 10539 10537 10535 10534 10532 10530 10528 10526 10524 10522 10520 10518 10516 10514 10512 10510 10508 10506 10505 10503 10502 10500 10498 10496 10494 10492 10490 10488 10486 10484 10482 10480 10478 10477 10475 10473 10472 10470 10468 10467 10465 10464 10462 10460 10459 10457 10455 10454 10453 10452 10450 10449 10449 10447 10446 10445 10444 10444 10443 10442 10441 10440 10440 10439 10439 10438 10437 10437 10436 10435 10435 10435 10435 10434 10434 10434 10434 10433 10433 10432 10432 10432
10539 10538 10537 10535 10533 10531 10529 10528 10526 10524 10522 10520 10519 10517 10515 10513 10511 10509 10507 10505 10503 10501 10499 10498 10496 10495 10493 10491 10489 10487 10485 10484 10481 10479 10477 10475 10474 10472 10470 10469 10467 10466 10464 10463 10461 10460 10458 10457 10455 10454 10452 10450 10449 10449 10447 10446 10445 10444 10444 10442 10442 10440 10440 10439 10439 10438 10437 10436 10435 10435 10435 10434 10434 10433 10432 10432 10432 10432 10431 10431 10430 10430 10430 10430 10430 10429
10533 10532 10531 10529 10527 10525 10524 10522 10520 10519 10517 10515 10513 10511 10510 10508 10506 10504 10502 10500 10499 10497 10494 10493 10491 10490 10489 10487 10485 10483 10481 10479 10477 10475 10473 10471 10470 10468 10467 10465 10464 10462 10460 10459 10458 10456 10455 10453 10452 10450 10449 10447 10446 10445 10444 10443 10442 10441 10440 10439 10439 10437 10437 10436 10435 10435 10434 10434 10433 10432 10432 10431 10430 10430 10430 10429 10429 10429 10428 10428 10427 10427 10427 10427 10427 10426
10527 10525 10525 10524 10522 10520 10518 10516 10515 10513 10512 10510 10508 10505 10504 10502 10500 10499 10497 10495 10494 10492 10490 10488 10486 10485 10484 10482 10480 10479 10477 10474 10472 10470 10469 10467 10465 10464 10463 10461 10460 10458 10457 10455 10454 10452 10451 10450 10448 10447 10445 10444 10443 10442 10441 10440 10439 10438 10437 10436 10435 10434 10434 10433 10432 10432 10431 10430 10430 10429 10429 10428 10427 10427 10426 10425 10425 10425 10425 10424 10424 10424 10424 10424 10423 10423
10522 10520 10519 10517 10516 10514 10512 10510 10509 10508 10507 10505 10502 10501 10499 10497 10495 10494 10492 10491 10489 10488 10486 10484 10481 10480 10479 10478 10476 10474 10472 10470 10469 10467 10465 10463 10462 10460 10459 10457 10456 10455 10453 10452 10450 10449 10447 10446 10445 10443 10442 10440 10440 10439 10437 10437 10435 10435 10434 10433 10432 10431 10430 10430 10429 10428 10427 10427 10426 10425 10425 10424 10424 10423 10423 10422 10422 10421 10421 10420 10420 10420 10420 10420 10419 10419
10516 10515 10513 10512 10510 10509 10507 10505 10503 10502 10501 10499 10497 10496 10494 10492 10490 10489 10487 10486 10485 10483 10482 10479 10477 10475 10474 10473 10472 10470 10468 10466 10464 10463 10461 10459 10458 10457 10455 10454 10452 10451 10450 10449 10447 10445 10444 10443 10441 10440 10439 10437 10436 10435 10434 10434 10432 10432 10430 10430 10429 10428 10427 10426 10425 10425 10424 10424 10423 10422 10422 10421 10420 10420 10419 10419 10418 10417 10417 10417 10416 10416 10415 10415 10415 10415
10510 10509 10508 10506 10505 10503 10502 10500 10498 10497 10495 10494 10492 10490 10489 10488 10486 10484 10482 10481 10480 10479 10477 10475 10473 10471 10469 10467 10467 10465 10464 10462 10460 10459 10457 10456 10455 10454 10452 10450 10449 10448 10446 10445 10444 10442 10441 10439 10438 10437 10435 10434 10433 10432 10431 10430 10429 10429 10427 10427 10425 10425 10424 10423 10422 10421 10420 10420 10419 10419 10418 10417 10417 10416 10415 10415 10414 10414 10413 10413 10412 10412 10412 10411 10411 10410
10505 10504 10502 10501 10499 10497 10496 10495 10493 10492 10490 10489 10487 10485 10484 10482 10482 10480 10478 10476 10475 10474 10472 10470 10468 10467 10465 10464 10462 10460 10459 10458 10456 10454 10453 10452 10450 10450 10449 10447 10445 10444 10443 10442 10440 10439 10438 10436 10435 10434 10432 10431 10430 10429 10428 10427 10426 10425 10424 10423 10422 10421 10420 10420 10419 10418 10417 10416 10415 10415 10414 10414 10413 10412 10412 10411 10410 10410 10409 10409 10408 10407 10407 10407 10407 10406
10500 10499 10497 10495 10494 10492 10491 10489 10488 10486 10485 10484 10482 10480 10479 10477 10476 10475 10474 10472 10470 10469 10468 10466 10464 10462 10461 10460 10458 10456 10455 10453 10452 10450 10449 10448 10447 10446 10445 10443 10442 10440 10440 10439 10437 10436 10435 10433 10432 10430 10429 10427 10427 10425 10424 10424 10422 10422 10420 10420 10419 10418 10417 10416 10415 10414 10414 10413 10412 10411 10410 10410 10409 10408 10407 10407 10406 10405 10405 10404 10404 10403 10403 10402 10402 10402
10494 10493 10492 10490 10489 10487 10486 10485 10483 10482 10480 10479 10477 10476 10474 10473 10472 10470 10469 10467 10465 10465 10464 10462 10460 10458 10457 10456 10454 10453 10451 10449 10447 10446 10445 10444 10443 10442 10441 10439 10438 10437 10436 10435 10434 10432 10431 10430 10428 10427 10425 10424 10423 10422 10421 10420 10419 10419 10417 10416 10415 10414 10414 10412 10412 10410 10410 10409 10408 10407 10407 10405 10405 10404 10403 10402 10402 10401 10400 10400 10399 10399 10398 10397 10397 10397
10489 10488 10486 10485 10484 10482 10481 10480 10479 10477 10475 10474 10473 10471 10470 10469 10467 10465 10464 10462 10460 10460 10459 10457 10455 10454 10453 10452 10450 10449 10447 10445 10444 10442 10440 10440 10439 10439 10437 10435 10434 10434 10432 10432 10430 10429 10428 10426 10425 10424 10422 10421 10420 10419 10418 10417 10416 10415 10414 10413 10412 10411 10410 10409 10408 10407 10406 10405 10404 10403 10402 10402 10400 10400 10399 10398 10397 10397 10395 10395 10394 10394 10393 10392 10392 10391
10484 10483 10481 10480 10479 10477 10477 10475 10474 10472 10470 10469 10468 10467 10465 10464 10462 10461 10459 10457 10456 10455 10454 10452 10450 10449 10448 10447 10447 10445 10444 10442 10440 10438 10437 10435 10435 10434 10434 10432 10430 10429 10429 10428 10427 10425 10424 10423 10421 10420 10419 10417 10417 10415 10414 10413 10412 10411 10410 10409 10408 10407 10406 10405 10404 10403 10402 10401 10400 10399 10398 10397 10396 10395 10394 10394 10392 10392 10390 10390 10389 10388 10387 10387 10386 10385
10479 10477 10476 10475 10474 10473 10472 10470 10469 10468 10466 10465 10464 10462 10461 10460 10458 10457 10455 10454 10452 10450 10449 10447 10446 10444 10443 10442 10442 10442 10440 10438 10435 10434 10433 10432 10430 10430 10430 10428 10427 10425 10425 10424 10423 10422 10420 10419 10417 10416 10415 10414 10413 10412 10410 10410 10409 10407 10406 10405 10404 10403 10402 10401 10400 10399 10397 10397 10395 10394 10394 10392 10391 10390 10389 10389 10387 10387 10385 10384 10384 10383 10382 10381 10380 10380
10474 10472 10472 10470 10469 10468 10467 10466 10464 10463 10462 10460 10459 10458 10457 10455 10454 10452 10450 10449 10447 10446 10444 10443 10442 10440 10439 10437 10436 10436 10436 10434 10432 10430 10429 10428 10427 10426 10425 10424 10423 10422 10420 10420 10419 10418 10417 10415 10414 10412 10411 10410 10409 10408 10407 10405 10404 10404 10402 10401 10400 10399 10398 10397 10395 10394 10393 10392 10390 10390 10389 10387 10387 10385 10384 10383 10382 10381 10380 10379 10378 10377 10376 10375 10374 10374
10469 10468 10467 10465 10465 10464 10462 10461 10460 10459 10457 10456 10455 10454 10452 10450 10449 10448 10446 10445 10444 10442 10440 10439 10437 10435 10434 10433 10432 10431 10431 10430 10428 10426 10425 10424 10422 10422 10422 10420 10419 10417 10417 10416 10415 10414 10413 10411 10410 10409 10407 10406 10405 10404 10402 10401 10400 10399 10398 10397 10395 10395 10394 10392 10391 10390 10389 10387 10386 10385 10384 10382 10381 10380 10379 10378 10377 10375 10374 10374 10372 10371 10370 10369 10369 10367
10464 10463 10462 10461 10460 10459 10458 10457 10455 10454 10453 10452 10450 10449 10447 10446 10445 10444 10442 10440 10439 10437 10436 10435 10433 10431 10430 10429 10427 10427 10427 10425 10424 10422 10420 10419 10419 10418 10417 10416 10414 10413 10412 10412 10411 10410 10409 10407 10406 10405 10404 10402 10400 10399 10398 10397 10396 10395 10394 10392 10391 10390 10389 10387 10386 10385 10384 10382 10381 10380 10379 10377 10376 10375 10374 10372 10371 10370 10369 10367 10366 10365 10364 10363 10362 10361
10459 10458 10457 10457 10456 10455 10454 10452 10451 10450 10449 10448 10447 10445 10444 10442 10440 10439 10437 10436 10434 10433 10432 10430 10429 10427 10426 10425 10423 10422 10422 10421 10419 10418 10417 10415 10414 10414 10413 10412 10410 10409 10407 10407 10406 10405 10404 10403 10402 10400 10399 10398 10396 10395 10394 10392 10391 10390 10389 10387 10386 10385 10384 10382 10381 10380 10379 10377 10376 10375 10374 10372 10371 10369 10368 10367 10365 10364 10363 10362 10360 10359 10358 10357 10355 10355
10455 10454 10452 10452 10452 10450 10449 10448 10447 10446 10445 10444 10442 10440 10439 10437 10436 10434 10433 10432 10430 10429 10427 10426 10425 10424 10422 10420 10419 10418 10418 10417 10415 10414 10412 10410 10410 10409 10409 10407 10405 10404 10403 10402 10402 10401 10400 10399 10397 10396 10395 10394 10392 10390 10389 10388 10387 10385 10384 10383 10381 10380 10379 10377 10376 10375 10374 10372 10371 10370 10368 10367 10365 10364 10362 10361 10359 10358 10357 10355 10354 10353 10352 10350 10349 10348
10450 10449 10448 10447 10447 10446 10445 10444 10443 10442 10441 10440 10438 10437 10435 10434 10432 10430 10429 10427 10426 10425 10423 10422 10420 10419 10419 10417 10415 10414 10414 10412 10411 10410 10408 10406 10405 10404 10404 10403 10401 10400 10399 10398 10397 10396 10395 10394 10393 10392 10390 10389 10387 10386 10385 10384 10382 10380 10379 10378 10376 10375 10374 10372 10371 10370 10369 10367 10365 10364 10363 10361 10360 10358 10356 10355 10354 10352 10350 10349 10347 10346 10345 10344 10342 10341
10446 10445 10444 10444 10443 10442 10441 10440 10439 10438 10437 10435 10434 10433 10431 10430 10429 10427 10425 10424 10422 10421 10419 10418 10417 10415 10414 10413 10412 10410 10409 10409 10407 10405 10404 10402 10400 10400 10399 10399 10397 10395 10394 10393 10392 10392 10390 10389 10389 10387 10386 10384 10383 10382 10380 10379 10377 10376 10374 10373 10371 10370 10368 10367 10365 10364 10363 10361 10360 10359 10357 10355 10354 10352 10350 10349 10347 10345 10344 10342 10341 10340 10338 10337 10335 10334
10442 10441 10440 10440 10439 10438 10437 10436 10435 10434 10433 10432 10430 10429 10427 10426 10424 10423 10422 10420 10419 10417 10415 10414 10412 10411 10410 10409 10407 10406 10405 10404 10403 10401 10399 10397 10396 10395 10394 10394 10392 10390 10389 10388 10388 10387 10385 10385 10384 10383 10381 10380 10379 10377 10375 10374 10372 10371 10369 10368 10366 10365 10363 10362 10360 10359 10357 10355 10354 10352 10351 10349 10347 10345 10344 10342 10340 10339 10337 10336 10334 10333 10332 10330 10329 10327
10439 10437 10437 10436 10435 10434 10433 10432 10431 10430 10429 10428 10426 10425 10424 10422 10420 10419 10418 10416 10415 10414 10412 10410 10409 10407 10406 10405 10404 10402 10400 10400 10399 10397 10395 10393 10391 10390 10390 10389 10388 10386 10384 10384 10383 10382 10380 10380 10379 10378 10377 10375 10374 10372 10370 10369 10368 10366 10365 10363 10361 10360 10358 10356 10355 10353 10351 10350 10348 10346 10345 10343 10341 10339 10338 10336 10334 10332 10331 10329 10328 10326 10325 10323 10322 10320
10435 10434 10433 10432 10431 10430 10429 10429 10427 10426 10425 10424 10423 10421 10420 10419 10417 10415 10414 10412 10411 10410 10408 10406 10405 10403 10402 10400 10399 10398 10397 10395 10394 10393 10391 10389 10387 10385 10385 10384 10383 10381 10380 10379 10377 10377 10376 10375 10374 10373 10372 10370 10369 10367 10365 10364 10363 10361 10360 10358 10356 10355 10353 10351 10349 10347 10346 10344 10342 10340 10339 10337 10335 10333 10332 10330 10328 10326 10324 10323 10321 10319 10318 10316 10314 10313
10431 10430 10429 10429 10427 10426 10425 10424 10424 10422 10421 10420 10419 10418 10417 10415 10413 10411 10410 10409 10407 10406 10404 10402 10401 10399 10397 10396 10395 10394 10392 10391 10390 10389 10387 10385 10382 10380 10380 10379 10378 10377 10375 10374 10372 10372 10371 10370 10369 10367 10366 10365 10364 10362 10360 10359 10358 10356 10355 10353 10351 10349 10348 10346 10344 10342 10340 10339 10337 10335 10333 10330 10329 10327 10325 10324 10322 10320 10318 10316 10314 10313 10311 10309 10307 10305
10427 10426 10425 10424 10424 10422 10422 10420 10419 10419 10417 10416 10415 10414 10413 10412 10410 10408 10406 10405 10404 10402 10400 10399 10397 10395 10394 10392 10390 10389 10388 10387 10385 10384 10382 10380 10377 10376 10375 10374 10373 10372 10370 10369 10367 10367 10366 10365 10364 10363 10361 10360 10358 10357 10355 10354 10352 10351 10349 10347 10346 10344 10342 10340 10339 10337 10335 10333 10331 10329 10327 10325 10323 10321 10319 10317 10315 10314 10312 10310 10308 10306 10304 10302 10300 10299
10423 10422 10422 10420 10420 10419 10417 10417 10415 10414 10414 10412 10411 10410 10409 10407 10406 10404 10402 10401 10400 10398 10396 10394 10393 10391 10389 10387 10386 10384 10383 10382 10382 10380 10378 10375 10373 10372 10371 10369 10368 10367 10366 10364 10362 10361 10360 10360 10360 10359 10357 10355 10353 10352 10350 10349 10347 10345 10344 10342 10340 10339 10337 10335 10333 10331 10329 10327 10325 10324 10321 10319 10317 10315 10313 10311 10309 10307 10305 10304 10301 10299 10297 10295 10294 10292
10419 10419 10418 10417 10416 10415 10414 10413 10412 10410 10409 10408 10407 10406 10405 10404 10402 10400 10399 10397 10395 10394 10392 10390 10389 10387 10385 10384 10382 10380 10379 10377 10377 10376 10374 10371 10369 10367 10367 10365 10363 10362 10362 10360 10358 10356 10355 10355 10355 10354 10353 10350 10349 10347 10345 10344 10342 10340 10339 10337 10335 10333 10331 10329 10327 10325 10324 10322 10320 10318 10315 10314 10311 10309 10307 10305 10303 10301 10299 10297 10295 10293 10290 10289 10287 10285
10416 10415 10414 10414 10412 10411 10410 10409 10408 10407 10405 10404 10403 10402 10400 10399 10398 10397 10395 10394 10392 10390 10388 10386 10385 10383 10382 10380 10378 10376 10374 10374 10372 10372 10370 10367 10365 10364 10363 10361 10359 10357 10357 10356 10354 10352 10350 10349 10349 10349 10348 10347 10344 10342 10341 10339 10337 10335 10334 10332 10329 10327 10326 10324 10322 10320 10318 10316 10314 10312 10310 10307 10305 10303 10301 10299 10297 10295 10292 10290 10289 10286 10284 10282 10280 10278
10412 10412 10410 10410 10409 10408 10407 10405 10404 10403 10402 10400 10399 10398 10397 10395 10394 10392 10391 10390 10388 10386 10384 10382 10380 10379 10377 10376 10374 10372 10371 10370 10369 10367 10366 10364 10361 10359 10359 10357 10355 10354 10352 10351 10350 10348 10346 10345 10344 10343 10342 10342 10340 10338 10336 10334 10332 10330 10329 10326 10324 10322 10320 10319 10316 10314 10312 10310 10307 10305 10303 10301 10299 10297 10295 10292 10290 10288 10286 10284 10282 10280 10278 10275 10273 10271
10409 10408 10407 10406 10405 10404 10402 10401 10400 10399 10397 10396 10395 10394 10392 10391 10390 10388 10387 10385 10384 10382 10380 10379 10377 10375 10373 10372 10370 10368 10367 10365 10365 10364 10362 10360 10357 10355 10354 10352 10351 10349 10347 10346 10345 10344 10342 10340 10339 10338 10337 10336 10335 10334 10332 10329 10327 10325 10324 10321 10319 10317 10315 10313 10310 10308 10305 10304 10301 10299 10297 10294 10292 10290 10288 10286 10284 10282 10280 10277 10275 10274 10271 10269 10267 10265
10405 10404 10403 10402 10401 10400 10399 10397 10396 10395 10394 10392 10391 10390 10388 10387 10385 10384 10382 10381 10380 10378 10377 10375 10374 10372 10370 10368 10365 10364 10362 10361 10360 10359 10357 10355 10354 10351 10350 10348 10347 10345 10343 10342 10340 10339 10337 10335 10334 10333 10332 10330 10329 10329 10327 10325 10322 10320 10318 10316 10314 10312 10309 10307 10305 10302 10300 10297 10295 10293 10290 10288 10286 10284 10282 10279 10277 10275 10273 10271 10269 10267 10265 10263 10260 10259
10401 10400 10399 10399 10397 10395 10394 10393 10392 10390 10389 10388 10387 10385 10384 10383 10381 10380 10379 10377 10375 10374 10372 10371 10370 10368 10367 10364 10362 10360 10358 10357 10355 10354 10353 10352 10350 10347 10345 10344 10342 10341 10339 10337 10335 10334 10332 10330 10329 10329 10327 10325 10324 10323 10322 10320 10318 10315 10313 10311 10309 10307 10304 10302 10300 10297 10294 10292 10289 10287 10284 10282 10280 10277 10275 10273 10270 10269 10266 10264 10262 10260 10258 10256 10254 10252
10397 10396 10395 10394 10393 10392 10390 10389 10387 10386 10385 10384 10383 10382 10380 10379 10377 10376 10374 10373 10371 10370 10369 10367 10365 10364 10362 10361 10359 10357 10355 10353 10351 10350 10349 10347 10345 10344 10342 10340 10339 10337 10335 10333 10331 10329 10328 10326 10324 10323 10322 10320 10319 10317 10315 10314 10312 10310 10308 10306 10304 10302 10299 10297 10294 10292 10289 10286 10284 10281 10279 10276 10274 10271 10269 10266 10264 10262 10259 10257 10255 10254 10251 10249 10247 10245
10394 10392 10391 10390 10389 10387 10386 10384 10383 10382 10381 10380 10379 10377 10376 10375 10374 10372 10370 10369 10367 10365 10364 10362 10361 10360 10359 10357 10355 10353 10351 10349 10347 10345 10344 10342 10341 10340 10337 10335 10334 10333 10331 10329 10327 10325 10323 10321 10319 10318 10316 10315 10314 10312 10310 10309 10307 10304 10302 10301 10299 10297 10294 10291 10289 10285 10283 10280 10277 10275 10272 10270 10267 10265 10262 10260 10257 10255 10252 10250 10249 10247 10244 10242 10240 10238
10389 10388 10387 10385 10384 10383 10382 10380 10379 10378 10377 10376 10375 10374 10372 10370 10369 10368 10366 10365 10363 10362 10360 10359 10357 10355 10354 10352 10351 10349 10347 10345 10344 10342 10340 10338 10337 10335 10334 10332 10330 10328 10327 10325 10323 10321 10319 10317 10315 10313 10311 10309 10308 10306 10305 10303 10301 10299 10297 10295 10293 10291 10289 10286 10283 10280 10277 10274 10272 10269 10266 10264 10261 10259 10255 10253 10250 10248 10245 10244 10242 10240 10238 10235 10233 10230
10385 10384 10382 10381 10380 10379 10377 10376 10375 10374 10372 10372 10370 10369 10368 10367 10365 10364 10362 10360 10359 10357 10355 10354 10353 10352 10350 10349 10347 10345 10343 10341 10339 10337 10336 10334 10332 10331 10329 10327 10325 10324 10322 10320 10319 10317 10314 10312 10310 10308 10307 10304 10302 10300 10299 10297 10295 10293 10291 10289 10287 10285 10283 10280 10277 10274 10272 10269 10266 10263 10260 10257 10255 10252 10250 10247 10244 10242 10239 10237 10235 10233 10231 10229 10226 10224
10380 10379 10378 10377 10375 10375 10373 10372 10370 10369 10368 10367 10366 10364 10363 10362 10360 10359 10357 10356 10354 10353 10352 10350 10349 10347 10345 10344 10343 10341 10339 10337 10335 10334 10332 10330 10328 10327 10325 10323 10321 10319 10317 10315 10314 10312 10310 10308 10305 10303 10301 10299 10297 10295 10293 10291 10289 10287 10285 10283 10280 10279 10277 10275 10272 10269 10266 10263 10260 10257 10254 10251 10249 10246 10244 10240 10238 10236 10234 10231 10229 10226 10224 10222 10220 10218
10376 10375 10374 10372 10371 10370 10369 10367 10366 10365 10364 10363 10361 10360 10359 10357 10356 10355 10353 10351 10350 10348 10347 10345 10344 10342 10341 10339 10338 10337 10335 10333 10331 10329 10327 10325 10324 10322 10320 10319 10317 10315 10313 10310 10309 10307 10305 10303 10301 10299 10297 10294 10292 10290 10287 10285 10284 10282 10280 10277 10275 10272 10270 10269 10267 10264 10260 10257 10254 10252 10249 10245 10242 10240 10237 10234 10232 10230 10228 10225 10224 10221 10219 10216 10214 10212
10372 10370 10369 10369 10367 10366 10365 10363 10362 10360 10359 10358 10357 10355 10354 10353 10352 10350 10349 10347 10345 10344 10342 10341 10340 10339 10337 10335 10334 10332 10330 10329 10327 10325 10324 10322 10320 10318 10315 10314 10312 10310 10309 10306 10304 10302 10300 10299 10296 10294 10292 10290 10287 10285 10282 10280 10278 10276 10274 10272 10270 10267 10264 10261 10259 10257 10255 10252 10249 10245 10242 10239 10237 10234 10231 10229 10226 10224 10222 10220 10218 10215 10213 10210 10208 10206
10368 10367 10365 10364 10363 10362 10360 10359 10357 10356 10355 10354 10352 10350 10349 10349 10347 10346 10344 10342 10341 10339 10338 10337 10335 10334 10332 10330 10329 10327 10325 10324 10323 10321 10319 10317 10315 10313 10311 10309 10307 10305 10304 10302 10299 10297 10295 10293 10291 10289 10287 10285 10282 10280 10277 10275 10272 10270 10269 10267 10264 10262 10259 10255 10253 10250 10248 10245 10242 10240 10237 10234 10230 10227 10225 10222 10220 10219 10216 10214 10212 10210 10208 10206 10204 10201
10364 10362 10361 10360 10359 10357 10355 10354 10353 10352 10350 10349 10347 10346 10345 10344 10343 10342 10340 10338 10337 10335 10334 10332 10330 10329 10327 10326 10325 10323 10321 10319 10318 10316 10315 10312 10310 10309 10307 10305 10302 10300 10299 10297 10294 10292 10290 10287 10285 10284 10282 10280 10277 10275 10272 10270 10267 10265 10263 10261 10259 10256 10253 10250 10248 10245 10242 10239 10236 10234 10231 10228 10225 10221 10218 10216 10214 10212 10211 10209 10207 10204 10202 10200 10199 10196
10360 10359 10357 10356 10354 10353 10351 10350 10349 10347 10346 10345 10344 10342 10340 10340 10339 10337 10335 10334 10332 10330 10329 10327 10326 10324 10323 10321 10320 10318 10316 10314 10313 10311 10310 10308 10306 10304 10302 10300 10298 10295 10294 10291 10289 10287 10285 10283 10281 10279 10276 10274 10272 10269 10267 10265 10262 10260 10257 10255 10253 10250 10247 10245 10242 10239 10236 10233 10230 10227 10225 10222 10219 10215 10212 10210 10208 10206 10205 10204 10202 10200 10197 10195 10193 10191
10355 10354 10353 10352 10350 10349 10347 10345 10344 10343 10341 10340 10339 10338 10337 10335 10334 10332 10331 10329 10328 10326 10324 10322 10321 10320 10318 10317 10315 10314 10312 10309 10307 10306 10305 10303 10301 10299 10297 10295 10292 10290 10289 10286 10284 10282 10280 10278 10276 10274 10272 10269 10265 10263 10261 10260 10257 10255 10252 10250 10247 10245 10242 10239 10237 10234 10231 10228 10225 10222 10219 10216 10213 10210 10207 10204 10202 10200 10199 10197 10197 10195 10193 10190 10188 10186
10351 10350 10349 10347 10345 10344 10342 10341 10340 10339 10337 10335 10334 10333 10332 10331 10329 10328 10326 10325 10323 10321 10319 10317 10316 10315 10313 10312 10310 10309 10307 10305 10303 10301 10300 10298 10296 10294 10292 10290 10287 10285 10283 10281 10279 10277 10274 10273 10271 10269 10267 10264 10260 10257 10255 10254 10252 10250 10247 10244 10242 10239 10236 10234 10231 10229 10225 10222 10220 10217 10214 10210 10207 10204 10201 10198 10195 10194 10192 10192 10191 10190 10189 10186 10184 10181
10347 10345 10344 10342 10341 10339 10338 10337 10335 10334 10332 10331 10330 10329 10327 10326 10325 10324 10322 10320 10319 10317 10315 10313 10311 10309 10308 10307 10305 10304 10302 10300 10298 10297 10295 10293 10291 10289 10287 10285 10282 10280 10278 10275 10274 10271 10269 10267 10265 10264 10262 10260 10256 10252 10249 10248 10246 10244 10242 10239 10237 10234 10230 10228 10225 10223 10220 10217 10214 10211 10209 10205 10203 10200 10197 10193 10190 10188 10187 10186 10185 10185 10184 10182 10180 10177
10342 10341 10339 10338 10336 10335 10333 10332 10330 10329 10328 10327 10325 10324 10322 10322 10320 10319 10317 10315 10314 10312 10310 10309 10307 10305 10303 10301 10300 10299 10297 10295 10293 10291 10289 10288 10286 10284 10282 10279 10277 10275 10272 10270 10267 10265 10263 10260 10259 10258 10257 10255 10252 10249 10244 10242 10240 10239 10236 10234 10231 10229 10225 10222 10219 10217 10214 10212 10209 10205 10203 10200 10198 10195 10192 10189 10186 10184 10182 10180 10180 10179 10179 10177 10175 10173
10338 10336 10335 10334 10332 10330 10329 10327 10326 10325 10324 10322 10320 10319 10318 10317 10315 10314 10312 10311 10309 10307 10305 10304 10302 10300 10298 10297 10295 10293 10292 10290 10288 10285 10284 10282 10280 10279 10276 10274 10272 10269 10267 10264 10261 10259 10257 10254 10252 10250 10249 10249 10248 10244 10240 10237 10234 10232 10230 10227 10225 10223 10220 10217 10214 10211 10209 10206 10203 10200 10197 10195 10192 10190 10188 10185 10182 10179 10177 10175 10175 10174 10174 10172 10171 10169